Theta_e
309 309 308 309 310 310 311 311 310 310 310 310 310 310 309 308 308 308 308 309 309 308 309 309 310 310 310 309 309 309 309 309 308 308 308 307 307 307 307 307 307 308 308 308 309 309 309 308 308 308 309 309 310 310 310 311 311 316 322 320 313 313 313 308 308 306 308 311 304 302 305 304 304 304 304 304 304 304 305 305 305 305 305 305 305 305 305 306
310 309 309 309 310 310 310 311 311 311 311 312 312 312 311 310 309 308 308 308 309 309 309 309 309 309 309 309 310 309 310 309 307 308 308 307 307 307 307 307 307 308 308 309 308 308 308 308 308 308 308 309 309 310 310 311 310 316 325 321 314 315 310 306 307 304 305 308 304 302 304 304 304 304 304 304 304 304 304 304 305 305 305 305 305 305 305 305
311 310 309 309 309 310 311 311 312 312 312 313 313 312 312 311 310 308 308 309 309 309 309 309 309 309 309 310 310 310 310 309 308 308 308 307 308 307 307 308 308 308 308 309 308 308 309 308 309 308 309 309 308 310 309 310 310 309 320 325 317 311 306 304 305 304 306 306 303 302 304 303 304 304 304 304 303 303 302 304 304 305 307 306 306 306 305 305
313 310 310 310 309 310 312 312 313 313 313 314 313 312 310 310 310 309 309 309 309 309 309 309 309 309 309 310 310 310 311 310 308 307 308 308 308 308 308 308 308 308 308 308 308 309 309 309 309 309 309 309 308 309 308 308 309 307 313 320 312 306 306 306 305 305 306 306 304 303 303 303 303 304 304 304 304 303 303 305 305 306 308 308 306 306 306 305
314 313 311 310 310 311 311 312 313 313 314 314 313 312 309 308 309 309 309 309 309 309 308 309 309 309 309 310 310 311 314 313 308 307 308 308 308 309 309 308 308 308 308 309 309 309 309 309 309 309 309 309 308 310 308 306 308 307 306 307 305 304 306 306 304 305 305 305 304 303 303 303 303 304 304 304 305 306 306 307 307 307 308 308 307 306 306 306
311 314 313 311 311 311 312 312 313 314 314 313 313 312 310 308 308 309 309 309 309 309 309 310 309 309 310 310 310 312 314 312 308 307 307 308 308 309 308 308 308 308 309 309 309 309 310 310 310 309 308 307 307 308 307 306 307 309 305 303 304 304 305 306 304 304 305 304 303 303 303 304 304 304 305 304 305 307 308 308 307 307 308 307 306 306 306 306
307 310 314 313 312 312 313 313 314 315 314 314 313 313 311 309 308 308 308 308 309 309 309 309 309 310 311 312 310 310 311 308 307 307 307 308 308 308 308 308 308 309 309 309 309 310 310 310 310 309 308 307 306 306 306 305 306 310 308 303 304 304 304 305 304 304 304 304 304 303 304 304 304 304 304 304 306 308 308 307 307 307 307 307 307 306 305 306
307 307 310 313 314 313 313 314 315 316 316 315 313 312 312 310 309 308 308 308 308 309 309 309 310 311 312 312 310 308 308 307 307 308 308 308 308 308 308 308 308 308 309 309 309 310 309 310 310 309 307 307 307 307 305 306 306 308 307 303 303 304 304 304 304 305 304 304 304 304 304 304 304 304 303 305 307 308 307 307 307 306 306 307 307 307 306 306
308 307 307 309 313 314 314 314 314 315 316 316 314 312 313 311 310 309 308 308 308 309 309 309 310 310 310 311 310 309 307 307 307 308 307 308 308 308 308 308 308 308 309 309 310 310 310 310 310 310 308 307 307 306 305 307 307 305 305 303 303 303 303 304 304 304 304 304 304 304 304 304 304 304 304 306 308 308 307 306 306 306 305 306 307 307 307 306
309 309 308 307 308 312 314 315 315 315 315 316 314 312 313 312 311 311 309 308 308 308 309 309 309 309 310 311 311 309 307 307 307 307 308 308 308 308 309 308 308 308 308 309 309 309 310 310 309 310 309 307 306 305 305 307 307 304 303 303 303 303 303 303 304 304 303 303 304 304 304 303 303 303 305 308 309 307 308 308 307 306 306 305 306 306 306 306
309 309 308 308 308 308 311 315 316 316 316 318 314 311 312 312 312 311 310 309 308 308 309 309 309 309 310 311 310 308 308 307 307 307 307 308 308 308 308 308 308 308 309 309 309 310 309 309 310 310 309 308 307 305 305 305 305 304 303 304 303 303 303 303 304 304 304 304 303 304 302 302 303 303 306 309 310 309 308 309 308 307 307 306 306 306 306 306
309 309 309 309 308 308 308 311 315 317 317 318 317 313 311 312 312 311 310 309 308 308 308 308 309 309 309 309 308 307 307 307 307 307 307 308 308 308 308 308 308 308 308 308 309 309 309 309 310 310 309 307 306 306 305 304 304 304 304 306 307 307 307 304 303 304 303 305 304 303 305 307 304 304 309 311 309 309 308 309 309 308 308 307 307 306 306 306
309 309 309 308 309 309 308 308 312 316 317 318 318 315 312 311 311 311 310 309 308 308 308 308 308 309 309 308 307 307 307 307 307 307 307 307 307 308 308 308 308 308 308 308 309 309 309 310 309 309 308 306 305 305 305 304 304 306 303 306 311 316 313 304 302 304 304 305 304 304 309 313 308 305 310 311 309 309 309 309 310 309 309 308 308 307 307 307
309 309 308 309 309 308 309 308 309 314 317 317 318 316 314 312 311 312 310 308 308 308 308 308 308 309 308 307 307 307 307 308 308 308 308 307 307 308 307 308 308 308 308 308 309 308 308 309 309 309 307 307 306 304 307 305 305 308 305 309 315 314 317 308 302 305 305 305 305 304 309 312 309 307 309 309 308 308 308 309 309 309 309 309 308 308 308 308
309 309 308 308 308 308 308 308 308 311 316 317 318 318 315 313 312 311 310 308 308 308 308 308 308 308 308 307 307 307 307 308 308 308 308 307 307 307 307 308 308 308 308 308 308 308 308 308 309 308 305 306 306 308 314 311 312 314 309 318 320 312 318 315 303 304 306 305 305 305 309 312 309 308 308 308 308 307 307 307 308 309 309 309 309 309 309 309
309 309 309 308 308 308 307 308 308 308 314 317 317 318 316 314 314 312 311 308 307 309 309 309 308 308 309 308 307 307 307 307 308 308 308 308 308 308 308 308 308 308 308 308 309 309 309 310 310 307 306 308 311 321 326 320 327 326 314 317 320 312 316 315 305 303 304 304 305 306 308 311 309 307 308 308 307 307 306 307 307 308 309 309 309 309 309 309
309 309 309 308 308 308 307 307 307 307 312 317 317 318 317 315 314 313 311 308 308 309 309 309 309 309 310 309 308 307 307 308 308 308 308 308 308 309 309 309 310 309 309 310 311 311 313 313 311 308 309 307 310 327 327 317 325 326 318 318 317 312 312 312 309 304 303 304 306 306 306 309 308 306 307 308 307 307 306 307 308 309 309 309 309 309 309 309
309 309 309 309 308 307 307 307 307 307 310 315 318 317 318 316 315 315 312 309 308 307 309 310 309 310 310 308 308 307 307 308 308 308 308 308 309 309 310 312 311 311 312 312 312 314 314 312 312 315 315 311 313 326 324 316 319 318 318 318 313 313 312 312 312 306 304 306 307 307 307 308 307 304 306 308 307 307 307 308 309 309 310 310 310 310 310 309
309 309 309 309 308 308 307 307 307 307 308 315 317 317 318 315 316 318 313 309 309 309 311 311 311 314 312 308 307 307 307 308 307 308 308 308 309 309 311 312 312 313 313 313 314 313 313 312 314 317 316 313 312 315 315 315 318 315 315 314 310 314 315 313 311 305 303 307 309 310 309 308 308 307 308 309 309 308 309 311 311 311 311 311 311 310 310 310
310 309 309 309 309 308 308 307 307 307 308 314 316 317 318 315 317 318 311 308 310 311 312 311 312 312 310 308 307 307 307 308 308 308 308 309 309 310 312 311 312 314 314 315 314 309 311 317 316 316 316 313 309 307 307 307 309 310 312 313 313 315 316 315 310 305 302 307 312 312 309 308 309 310 308 307 309 310 311 312 312 312 312 311 311 311 311 310
310 310 309 309 308 309 308 307 308 307 309 314 315 316 316 314 316 316 311 309 309 309 309 310 310 308 308 307 307 308 308 308 309 308 308 310 311 312 312 313 315 315 311 310 312 311 316 318 314 315 315 309 306 306 307 307 307 309 311 314 315 315 317 313 307 307 304 305 313 312 310 312 313 313 308 305 309 312 312 311 311 312 312 312 311 311 311 310
309 310 310 309 309 309 308 308 308 308 310 313 314 315 314 312 312 311 311 311 308 307 307 308 308 307 307 307 307 307 308 309 308 308 309 308 311 313 311 315 321 317 311 312 314 316 320 315 309 308 305 302 305 308 307 307 308 312 313 313 313 312 313 309 305 309 307 306 316 314 310 317 317 313 309 305 308 311 311 311 311 312 311 312 312 311 311 311
307 309 310 309 309 309 308 309 309 308 310 313 313 313 313 310 310 311 311 311 308 307 307 307 307 306 306 307 307 308 309 309 308 308 309 308 310 311 309 316 325 322 319 323 321 316 314 309 306 302 301 303 309 310 308 308 310 315 317 314 313 310 309 308 307 310 308 306 312 312 311 320 319 316 314 308 308 310 312 312 312 312 312 312 312 312 312 311
306 308 309 310 309 309 309 309 309 309 310 312 312 312 312 311 310 310 310 310 310 308 307 306 307 306 307 307 306 308 308 306 307 307 307 309 309 311 309 312 324 325 319 321 325 319 311 304 302 302 303 307 311 313 314 314 313 316 317 313 312 311 307 308 310 310 310 308 308 310 315 322 321 320 319 313 309 310 311 313 313 312 312 312 312 312 311 311
306 307 309 310 309 309 308 308 309 309 310 312 312 311 311 311 309 309 310 310 313 313 308 306 308 306 307 308 306 307 308 306 307 306 307 309 309 312 310 308 317 319 313 313 318 316 309 301 302 307 311 312 312 315 315 313 312 314 314 309 308 310 308 311 313 311 312 313 309 309 314 321 326 326 320 316 314 311 309 310 312 312 312 311 311 311 311 311
306 306 308 309 309 309 308 309 310 308 310 311 311 312 311 311 310 310 314 315 318 317 310 307 308 308 308 307 306 308 308 308 307 306 307 308 309 311 309 308 310 311 313 312 310 308 305 301 302 309 315 315 315 315 309 308 312 308 308 307 308 309 309 312 314 311 311 312 309 309 313 317 324 325 319 317 318 315 309 307 309 310 310 310 310 310 311 311
306 306 306 308 310 309 308 309 310 309 310 311 311 311 311 311 309 308 313 315 315 314 311 308 307 310 310 306 307 309 308 310 308 307 307 306 309 309 309 311 309 309 310 310 307 306 305 305 306 310 315 316 317 315 309 306 308 306 307 307 309 308 308 311 312 311 312 312 314 318 314 310 318 322 318 314 314 316 312 309 309 309 310 310 310 310 310 310
305 306 306 308 309 309 308 308 309 309 310 312 311 310 311 312 309 310 315 312 309 312 312 309 308 311 310 305 306 306 307 310 310 308 307 306 309 310 311 312 310 310 305 306 308 309 304 307 309 310 314 315 315 313 307 306 305 307 305 304 306 306 308 311 313 315 314 311 318 326 314 309 322 327 319 313 312 314 312 312 311 309 309 310 310 310 310 310
305 306 306 307 308 310 309 308 309 308 309 311 310 310 312 310 309 314 317 311 308 312 311 309 309 308 308 307 306 306 307 308 309 309 308 307 309 309 311 308 306 307 303 305 315 310 302 305 306 307 311 311 310 306 303 306 307 305 302 304 308 308 309 311 313 317 317 315 317 322 312 308 320 326 320 315 313 313 310 311 311 309 310 310 310 310 310 311
305 305 305 306 307 308 309 308 308 308 309 309 309 311 310 312 319 320 316 313 311 310 308 308 309 307 308 308 306 307 308 307 307 308 307 308 308 307 309 307 306 312 312 311 314 308 302 303 303 304 307 306 305 303 301 303 304 303 304 309 312 313 310 311 314 315 317 321 322 320 312 307 312 321 321 314 311 313 312 312 310 308 310 310 310 310 309 310
304 305 305 306 306 307 309 308 309 309 309 309 309 310 309 315 326 323 314 312 311 309 308 308 308 308 312 310 308 310 308 306 306 308 310 309 307 308 309 309 307 316 328 322 310 305 304 306 305 301 302 303 304 306 303 301 303 305 311 315 312 315 313 313 323 320 314 321 323 320 314 307 309 319 320 315 313 312 312 314 312 309 310 310 310 310 309 309
303 304 305 306 306 307 308 308 311 310 309 309 308 310 315 316 318 320 319 314 310 310 310 309 308 311 314 312 314 315 309 306 306 309 313 310 308 310 312 316 313 311 323 324 311 309 310 308 304 300 300 302 305 308 305 304 307 308 315 321 316 318 317 317 328 320 311 317 315 313 312 306 310 317 315 316 315 309 307 310 312 310 310 311 310 310 310 309
302 304 305 305 305 307 307 308 310 310 310 310 307 312 321 321 318 321 322 315 308 308 309 309 310 311 313 312 314 314 308 308 309 308 309 307 308 311 310 312 312 308 316 318 311 312 312 308 304 305 304 300 302 309 309 310 311 308 312 318 318 317 312 314 321 312 309 316 311 307 308 310 315 314 314 317 312 308 307 308 311 311 311 311 310 310 310 309
301 303 304 305 306 306 307 308 308 308 309 308 309 315 318 319 321 320 319 314 309 308 307 308 310 310 311 311 312 310 308 309 310 309 308 308 309 313 313 308 306 311 317 313 308 311 313 310 307 306 305 301 302 307 309 310 309 309 311 312 313 316 309 311 318 314 312 316 313 307 308 318 319 309 312 313 306 307 310 309 311 311 312 312 310 311 310 309
302 302 303 305 305 306 306 307 307 307 308 308 312 318 316 316 319 320 321 317 311 310 309 308 310 310 311 313 311 308 308 309 309 308 308 309 312 316 320 316 309 311 314 313 311 308 307 310 307 302 301 301 304 303 301 306 307 308 309 309 309 314 316 313 312 314 312 312 316 312 311 320 316 307 309 307 306 309 309 309 311 311 312 311 310 311 309 309
302 301 302 304 305 306 305 306 307 306 307 309 311 314 316 317 318 318 318 314 312 313 311 310 312 310 312 315 311 307 307 309 308 307 308 309 312 314 318 321 314 309 312 317 317 310 306 309 305 302 301 298 301 301 298 303 306 306 308 312 309 307 315 316 307 308 309 309 316 313 312 316 310 309 313 309 310 311 308 309 310 311 313 311 310 311 310 310
303 301 302 303 304 306 305 305 306 305 306 309 311 315 317 315 314 316 313 309 311 314 313 314 313 311 313 314 312 310 309 308 307 308 311 311 311 312 314 315 309 306 309 310 313 315 313 310 305 303 305 300 297 299 299 300 302 305 307 310 306 303 311 314 309 313 311 311 319 315 311 314 310 312 316 311 312 313 310 310 309 310 312 310 310 311 310 310
302 300 301 302 304 305 305 305 305 306 306 308 312 318 317 312 309 312 311 307 309 312 313 315 312 311 314 313 313 311 308 310 311 310 313 313 311 311 313 313 309 304 303 303 307 311 310 313 310 301 303 303 297 299 303 301 299 302 304 304 305 309 315 313 311 316 312 308 316 319 315 311 309 314 316 312 313 314 312 312 310 310 311 310 311 311 310 310
301 301 302 302 303 304 305 305 304 306 308 309 313 316 314 312 309 308 310 309 309 311 313 315 310 310 314 315 316 312 308 313 315 310 310 310 309 309 309 312 309 303 302 302 307 310 307 311 314 303 300 302 300 302 308 308 301 299 301 303 305 312 318 314 310 314 315 309 312 320 322 315 313 321 321 313 313 314 315 317 313 310 310 310 311 310 310 310
301 303 305 304 304 304 304 305 305 306 309 311 314 314 310 310 308 307 309 310 309 309 313 316 311 310 313 313 314 312 309 314 314 310 310 308 309 311 308 310 310 305 303 301 305 312 307 304 311 308 300 302 306 307 309 312 308 304 307 309 307 307 309 309 308 311 317 316 313 315 318 319 317 317 319 315 314 315 316 316 313 309 310 311 310 310 310 309
301 305 307 304 306 306 304 306 306 307 309 309 311 311 309 309 308 307 308 309 309 308 311 316 314 313 316 314 314 313 309 312 313 310 310 308 309 310 307 306 307 304 305 304 307 312 308 308 317 314 306 310 315 306 300 303 305 306 310 313 310 309 310 311 310 310 310 312 315 313 311 318 317 311 314 314 311 312 312 311 310 309 310 311 310 310 310 308
302 307 308 305 308 307 305 307 306 305 310 312 310 309 309 309 309 308 307 307 308 306 306 311 313 315 318 315 315 313 310 312 311 309 311 311 310 309 305 302 303 302 306 310 311 308 306 311 317 315 314 313 307 299 295 297 299 300 304 307 307 310 315 316 315 315 309 306 311 311 308 316 318 306 307 309 305 307 310 308 309 310 310 310 310 310 309 308
301 305 306 305 308 307 306 307 306 306 311 311 307 307 309 309 309 308 306 306 308 306 306 308 309 312 313 310 310 311 310 311 312 311 314 315 311 306 301 301 302 302 305 309 309 304 304 310 311 314 320 313 303 298 295 294 297 302 303 302 305 310 315 320 320 317 313 308 310 310 307 318 321 304 299 305 305 307 309 309 309 310 310 310 310 310 309 308
301 302 303 303 307 307 306 307 308 310 312 309 306 307 309 308 308 309 308 307 308 308 310 311 308 309 310 307 308 312 310 310 312 310 311 313 308 302 299 301 302 302 304 308 308 304 305 313 313 313 317 317 314 310 305 301 301 306 309 305 307 310 310 312 311 307 309 313 313 313 311 317 323 311 304 305 305 305 307 308 309 310 310 309 310 310 309 308
303 302 303 303 305 307 307 307 308 311 312 309 308 310 310 308 309 309 309 307 306 307 310 310 307 308 309 306 306 310 308 307 309 309 307 309 307 301 299 300 300 301 303 303 303 303 305 312 315 315 312 312 316 317 319 318 309 306 310 308 306 307 306 310 311 307 310 313 310 312 313 312 315 315 311 310 309 307 307 306 307 309 310 310 309 310 310 309
305 305 306 305 305 306 306 306 306 308 310 309 309 311 311 310 308 308 307 307 307 306 307 308 307 307 308 306 307 309 307 304 305 307 308 310 309 302 299 299 299 301 302 301 301 304 308 309 312 318 317 313 316 319 317 315 311 309 310 308 306 306 306 311 314 311 313 312 308 310 312 309 309 310 309 310 311 309 306 304 306 309 309 309 309 309 310 309
306 306 308 307 306 306 306 306 305 306 307 308 308 310 311 310 309 308 307 307 308 306 305 306 308 308 308 308 308 308 307 305 304 305 309 311 308 301 298 300 300 300 301 301 301 305 310 310 309 312 312 311 315 317 310 308 311 314 313 310 308 306 305 309 311 311 312 312 309 309 309 308 308 308 307 308 308 307 306 304 307 309 308 308 309 309 310 309
306 306 306 307 307 307 307 307 305 305 305 306 307 309 310 309 309 309 308 306 306 306 306 307 309 311 312 311 310 309 307 306 306 307 309 310 307 303 301 300 299 300 301 300 300 304 311 313 309 307 309 311 312 313 310 308 310 312 313 314 311 307 307 308 308 309 310 309 308 310 312 311 308 307 307 307 306 306 306 306 307 307 307 307 308 309 310 309
306 306 305 305 307 307 306 306 305 305 306 306 306 309 310 310 309 309 308 307 307 307 307 308 311 313 314 312 310 310 309 308 310 310 310 310 308 307 307 305 301 300 300 300 299 301 308 314 311 305 307 312 311 310 309 308 308 310 311 311 311 309 308 307 307 307 308 308 308 309 310 309 306 306 306 305 305 305 305 306 306 306 307 308 309 310 310 308
306 306 306 305 306 305 305 305 305 306 306 305 306 307 308 309 310 307 306 308 311 310 306 307 311 313 312 310 310 311 311 313 317 315 312 311 309 307 309 311 310 302 299 302 302 299 303 314 313 306 308 315 311 306 306 305 306 308 308 306 307 308 307 304 304 305 305 306 306 306 306 306 305 305 305 304 305 305 304 305 306 307 309 309 310 310 309 308
307 306 306 305 306 305 305 304 305 307 307 306 307 307 306 309 309 307 307 307 309 311 308 307 310 310 309 309 309 309 309 310 313 312 310 310 310 309 307 308 311 308 303 302 304 302 302 309 310 306 310 317 309 304 306 306 304 307 309 307 304 306 307 306 304 304 305 306 306 305 305 305 305 304 305 305 304 303 304 306 308 310 310 310 311 310 309 308
306 307 306 305 305 306 306 305 305 306 307 306 307 307 307 307 305 305 308 307 306 307 308 307 307 308 310 309 308 309 307 307 308 308 307 307 307 307 306 304 306 309 307 303 305 306 305 310 313 309 312 316 307 303 307 308 308 312 315 312 308 305 305 305 305 305 304 305 306 306 305 306 306 306 306 307 305 304 306 309 310 310 310 310 311 310 308 307
Wind_Speed
12 12 12 12 11 12 12 13 14 14 15 15 15 14 13 12 10 8 8 8 8 8 8 7 6 3 4 7 8 8 6 7 8 8 9 9 9 8 9 10 10 10 10 9 9 9 7 6 3 3 4 3 3 2 4 7 6 4 3 5 3 3 3 5 6 6 4 3 8 16 21 14 7 12 13 9 12 17 16 19 21 22 25 25 22 18 17 15
10 11 11 10 10 11 12 12 12 13 13 13 14 13 13 12 10 7 7 9 9 8 7 6 4 1 4 7 6 5 3 5 7 11 12 10 8 8 8 8 9 8 8 7 6 6 5 4 2 2 1 2 3 3 5 8 8 5 3 4 2 5 3 3 3 6 3 3 11 17 19 17 10 12 13 8 10 14 15 21 23 26 29 28 26 25 23 21
8 9 9 9 9 10 10 11 11 11 11 11 12 12 11 11 10 7 7 8 7 6 4 3 1 2 5 4 3 2 2 4 7 10 11 9 8 8 8 8 8 7 6 6 4 4 4 2 2 2 2 4 6 4 7 9 6 4 4 3 4 6 3 1 1 4 8 6 12 16 16 17 13 11 11 9 8 9 14 21 22 27 32 29 28 28 26 25
7 7 7 8 8 7 8 8 8 9 9 10 10 10 10 9 9 6 4 4 3 2 0 1 1 3 5 6 4 0 1 2 6 9 7 6 6 6 7 8 8 7 7 5 3 2 2 2 2 2 4 5 7 6 7 9 5 3 4 3 5 5 3 1 2 2 8 10 15 17 13 14 15 12 11 10 5 8 20 29 28 29 30 25 26 29 29 28
6 6 5 6 6 6 5 5 6 7 8 8 8 8 9 8 7 5 3 1 1 1 2 0 3 5 8 10 4 3 3 1 5 7 4 2 3 4 6 7 8 8 7 4 2 2 2 2 2 3 5 4 6 6 5 7 6 5 3 1 3 5 3 1 0 0 5 10 16 17 11 10 12 13 15 14 7 12 22 24 24 27 26 24 24 26 28 30
5 5 4 4 4 4 4 4 4 5 6 6 6 7 8 8 6 5 3 2 2 2 1 5 5 5 7 10 5 4 3 1 2 4 3 1 2 3 5 5 7 8 6 4 3 3 3 3 6 5 5 5 6 5 4 4 2 4 1 1 3 5 3 4 3 3 6 11 16 15 11 8 9 10 15 21 22 27 25 19 16 17 18 21 24 26 28 30
3 3 3 3 2 2 2 3 3 4 4 4 4 6 8 8 7 5 4 4 2 1 4 5 3 3 3 6 6 3 4 5 1 3 3 1 3 3 3 4 5 7 6 5 4 5 6 7 9 9 7 5 5 4 5 5 4 6 1 0 3 3 6 7 4 5 8 11 13 11 8 8 9 8 8 21 34 34 29 25 22 19 15 17 23 27 29 29
4 2 1 2 2 2 2 1 2 3 4 4 3 4 7 8 7 6 6 6 3 2 4 4 3 2 1 2 4 6 7 6 3 3 3 1 2 2 3 3 5 5 5 4 4 7 7 7 8 7 6 4 4 3 3 5 6 6 3 3 4 4 7 7 5 6 7 8 8 7 9 10 11 9 10 27 39 35 33 32 30 28 23 21 23 27 28 29
5 4 2 0 2 2 3 2 1 0 2 5 4 3 6 7 7 7 7 8 4 2 5 5 4 2 1 1 2 4 6 4 3 4 3 3 2 2 4 4 4 4 4 4 5 6 5 5 4 4 5 6 6 3 3 2 3 3 6 6 5 4 5 6 4 4 4 5 5 5 9 10 10 9 16 33 33 26 28 29 30 31 31 28 25 26 28 29
5 4 4 3 2 3 3 3 3 2 1 4 4 3 4 5 6 7 8 8 5 2 4 4 2 2 1 1 2 3 3 3 4 4 4 5 4 3 4 5 4 4 4 3 5 6 6 7 7 7 8 7 6 6 5 3 4 9 12 9 6 4 2 3 3 2 2 5 5 6 8 8 6 1 12 27 20 13 16 17 20 24 31 33 28 26 27 28
5 4 4 4 3 3 4 4 3 2 2 2 4 3 3 4 5 6 7 7 5 2 1 1 1 1 0 2 4 5 3 3 5 5 5 6 6 5 5 6 5 4 4 3 6 8 9 8 6 5 4 5 6 9 9 8 10 13 12 7 5 4 0 3 2 2 3 3 4 6 8 9 2 2 16 25 17 14 17 17 16 17 23 29 32 31 29 30
5 4 4 5 5 4 3 4 4 2 2 2 3 3 3 4 4 6 7 6 4 2 1 2 5 7 4 3 7 8 5 5 7 7 8 7 7 6 7 8 7 7 6 5 8 9 7 6 4 3 5 7 5 6 8 9 9 7 4 1 5 6 2 3 2 1 1 1 3 3 6 7 4 11 21 17 14 17 18 19 19 18 19 21 26 31 33 35
6 5 5 5 5 5 4 3 4 4 3 2 3 4 3 3 4 6 7 5 4 1 1 3 4 3 2 5 8 8 7 6 7 8 9 9 9 8 8 8 6 8 8 6 7 6 4 5 4 8 12 9 6 6 7 5 4 2 2 2 3 7 5 2 2 1 2 1 4 4 4 7 7 19 22 13 15 18 17 20 20 19 20 19 20 23 27 31
7 6 6 5 5 6 5 4 4 5 4 3 2 4 4 3 3 5 6 6 4 2 0 1 1 0 2 5 7 7 7 6 7 6 7 7 9 10 10 10 8 9 8 6 7 8 9 8 7 12 13 10 11 11 7 3 2 1 2 2 3 3 4 4 1 2 1 2 2 3 2 8 7 16 18 11 11 13 17 21 20 20 21 20 20 20 21 22
7 7 6 6 6 6 6 5 5 6 5 4 3 3 4 4 3 5 5 5 4 2 1 0 1 2 5 6 5 6 6 6 6 6 7 8 8 9 9 10 11 12 11 10 11 12 12 10 10 13 12 12 12 8 3 4 3 3 2 3 4 1 5 7 1 4 2 3 1 4 3 8 9 12 8 6 13 18 22 25 23 23 23 22 22 21 22 21
8 8 7 7 6 6 6 6 5 6 6 5 4 4 4 4 4 5 5 4 3 1 1 1 2 4 5 4 3 4 5 4 5 6 8 8 7 7 9 10 11 12 12 12 13 13 10 8 10 12 9 7 5 4 4 5 4 4 3 2 3 1 4 6 2 4 4 2 2 3 3 7 8 10 13 19 25 24 22 26 25 24 24 24 24 24 25 24
8 8 8 8 7 7 7 6 6 5 7 6 5 5 4 4 4 5 4 2 2 1 1 2 3 4 3 2 3 3 4 4 4 4 6 6 4 4 6 8 10 12 12 12 10 9 6 5 7 6 5 4 2 4 5 4 3 4 3 0 4 3 3 4 3 3 2 1 4 2 4 9 12 18 30 29 21 17 18 23 24 22 23 22 23 25 25 25
7 8 8 8 8 8 7 7 6 5 6 6 5 5 5 5 5 5 4 2 1 1 2 1 3 3 2 3 4 3 4 4 3 2 3 3 2 3 5 6 8 10 10 9 6 5 4 4 5 2 4 6 4 5 4 3 4 3 1 0 3 3 3 5 3 1 1 1 5 3 5 13 15 19 29 24 14 15 19 21 21 20 20 20 21 22 22 23
8 8 8 8 8 8 8 7 6 5 5 7 5 5 5 6 6 5 4 2 3 2 2 2 1 3 2 4 5 3 3 3 2 1 1 2 2 3 4 4 6 6 5 3 3 5 4 4 5 4 3 3 3 5 5 5 5 5 4 3 3 4 4 5 4 2 1 3 6 5 5 11 15 16 21 23 19 17 18 17 16 16 17 17 18 19 19 20
8 8 8 8 8 8 9 7 6 5 4 5 5 4 4 6 4 3 5 3 1 3 2 2 1 3 3 4 4 3 3 3 2 1 1 2 1 3 3 3 3 3 3 1 3 5 5 4 3 3 5 3 3 3 3 2 4 4 3 3 4 4 5 5 3 3 3 3 6 5 4 11 14 13 16 22 20 15 14 13 12 14 15 16 15 15 15 16
8 8 8 8 7 8 9 7 6 5 3 3 3 2 3 5 3 3 6 5 2 1 1 1 2 3 3 3 2 2 2 2 1 1 1 2 0 3 1 2 4 4 5 3 2 4 5 5 2 6 7 5 3 1 2 2 3 2 3 3 3 3 5 5 2 4 6 4 5 3 6 12 12 10 14 17 12 9 12 12 11 14 15 15 14 13 12 13
8 8 8 8 7 7 8 7 5 4 3 2 1 2 4 4 2 3 5 3 2 1 1 2 2 2 3 2 1 1 1 1 0 1 1 2 0 1 1 3 6 3 5 4 2 5 6 2 4 4 3 1 1 3 3 1 2 1 2 1 3 3 5 6 3 5 5 2 5 5 7 11 11 9 12 11 6 5 10 10 9 12 14 15 14 12 11 10
8 8 8 8 6 7 7 6 5 4 2 2 2 3 3 3 2 3 5 3 3 2 1 1 1 1 2 1 1 0 0 1 1 2 2 1 0 2 2 5 6 2 5 5 3 3 2 2 4 2 2 3 3 4 5 3 2 1 0 1 3 3 3 3 4 7 6 1 5 6 5 7 8 7 7 7 6 6 9 8 7 10 12 14 13 11 11 10
8 8 8 7 6 6 6 5 4 3 2 2 1 2 2 2 1 3 5 3 3 3 3 3 2 2 1 0 1 1 1 2 2 4 4 1 3 4 4 4 5 3 4 2 6 6 1 2 1 2 4 4 3 3 5 5 0 2 1 3 2 2 1 3 5 8 7 2 3 5 4 4 5 6 6 7 10 10 11 10 9 10 11 11 10 10 9 9
8 8 8 7 6 6 5 4 3 2 2 1 1 2 1 1 1 4 4 2 3 4 3 3 2 2 2 1 1 2 2 1 3 3 3 3 3 3 4 4 3 2 2 0 6 5 1 1 1 3 5 5 3 0 1 4 1 4 2 4 4 4 3 4 6 6 5 4 5 5 5 4 6 5 6 6 8 9 11 13 12 12 12 12 12 12 10 9
8 8 8 7 6 5 5 3 2 2 2 1 1 1 1 2 1 5 3 4 3 3 3 4 3 3 4 2 1 1 2 2 1 2 2 4 2 3 4 3 4 3 4 2 4 3 1 2 2 4 4 5 5 1 2 4 2 2 2 4 5 5 1 2 4 4 3 3 5 5 5 3 7 6 6 5 6 7 8 11 11 12 13 14 14 14 13 12
9 8 7 8 6 5 4 3 2 2 2 2 1 1 1 2 1 4 3 5 3 3 4 4 4 3 5 2 1 3 0 2 1 2 2 3 1 3 3 0 3 2 3 4 1 0 1 3 5 5 5 4 3 1 2 4 3 2 1 4 4 3 1 0 3 3 1 3 5 5 4 2 4 6 6 3 3 6 8 8 10 11 13 14 14 15 16 16
11 9 8 8 7 5 4 3 2 2 2 2 1 1 2 2 1 2 3 3 2 2 3 3 4 3 3 2 2 3 0 0 2 1 2 3 2 2 2 2 5 3 2 3 3 3 1 1 1 3 4 2 2 3 2 3 1 2 3 3 2 2 2 3 4 2 2 2 4 6 3 1 5 7 6 3 0 5 7 5 7 7 11 13 14 14 15 15
12 10 8 8 7 6 5 5 5 3 2 2 1 2 3 1 2 3 4 1 1 2 2 2 4 2 1 2 1 1 1 1 1 0 1 3 2 2 3 5 10 8 5 4 3 3 1 0 2 3 3 2 3 2 2 2 1 1 3 3 3 3 3 3 4 2 2 3 2 6 4 2 5 6 5 3 2 2 4 4 6 3 7 10 12 13 12 12
13 12 9 8 8 7 6 6 7 5 3 3 2 3 3 2 3 5 2 3 1 1 1 3 3 1 1 2 2 3 1 1 2 2 1 3 3 4 8 8 7 7 5 6 4 1 1 1 1 2 1 2 2 1 1 2 2 3 4 4 4 4 4 3 2 3 4 3 5 6 2 2 3 6 4 1 1 4 5 4 6 4 2 7 10 12 12 11
14 13 11 9 8 8 8 7 7 7 5 4 3 4 5 2 4 5 3 4 0 0 1 1 2 2 3 3 0 3 2 2 4 3 1 2 4 4 7 5 2 4 4 5 3 2 3 2 1 1 0 1 2 1 1 1 2 3 3 3 3 4 3 3 4 4 3 3 6 5 2 2 2 6 5 5 5 5 7 6 7 7 1 6 10 12 13 13
15 15 13 11 10 9 9 7 6 7 6 4 4 5 5 2 1 3 4 3 1 2 1 0 2 1 3 2 1 2 1 2 3 4 1 1 2 1 2 3 4 1 4 3 0 3 2 1 2 2 0 1 2 1 2 2 3 3 2 3 4 4 4 2 4 3 1 4 3 1 2 1 5 8 8 8 8 7 10 12 11 8 4 4 8 12 13 13
15 16 15 14 12 10 10 9 7 7 6 4 5 4 5 3 4 6 4 2 1 1 0 1 1 2 3 2 0 1 1 1 1 3 1 1 1 3 2 3 4 3 1 3 1 2 3 4 3 1 1 1 2 2 1 1 2 2 2 2 2 1 3 2 4 3 3 5 3 1 2 2 4 6 7 10 9 8 15 17 12 7 3 4 8 11 11 11
15 17 17 16 13 11 11 10 9 8 6 5 5 4 5 3 6 4 3 4 2 2 2 2 2 3 3 1 2 2 2 1 0 2 1 2 1 2 3 3 2 4 4 2 2 2 2 4 2 1 1 2 1 2 3 2 1 1 3 4 2 3 3 3 4 3 4 5 4 3 1 3 2 2 5 9 8 4 14 17 10 5 2 3 8 9 9 11
15 17 19 18 15 12 11 11 11 9 9 6 3 4 4 6 4 2 3 4 2 0 1 2 4 3 2 2 3 1 2 2 1 2 1 1 3 4 3 4 4 4 5 3 3 2 1 5 3 2 2 1 1 1 1 2 1 2 2 3 1 3 4 1 3 5 2 2 4 3 3 5 4 4 7 7 3 4 11 14 11 7 4 2 7 8 9 11
14 16 19 19 17 14 11 12 11 10 11 7 4 2 6 5 3 4 3 3 4 4 3 2 3 2 2 3 3 2 1 1 1 1 1 2 4 5 4 4 6 7 6 5 4 2 1 4 3 3 2 1 1 1 1 0 1 1 1 1 3 3 6 4 2 1 4 1 4 2 3 6 4 4 6 4 4 5 5 10 12 9 5 3 6 9 10 11
14 15 18 20 19 15 12 13 12 12 12 7 4 5 5 3 4 4 3 3 3 5 6 2 2 3 2 2 2 2 1 1 1 1 2 3 3 5 5 3 4 7 5 4 4 3 3 3 4 1 0 1 1 1 2 1 1 1 2 4 3 3 5 4 1 4 5 0 4 2 4 6 3 3 5 4 3 4 5 9 11 10 8 5 7 10 10 10
13 15 18 20 20 16 14 13 12 13 11 7 3 6 3 3 4 3 4 4 3 4 5 3 4 3 3 3 3 3 3 2 2 2 2 2 3 4 5 2 2 3 3 5 2 2 3 1 5 1 1 3 2 1 2 3 1 1 2 2 1 3 1 2 2 0 1 2 4 5 5 4 3 4 4 3 6 8 8 8 8 9 10 6 7 10 9 8
11 11 14 16 19 19 16 13 14 14 9 5 4 5 3 3 4 4 6 4 3 4 3 4 3 1 3 5 3 3 4 4 4 3 2 2 3 3 3 2 2 1 3 7 4 1 3 1 4 2 1 2 3 0 3 1 1 1 1 2 1 3 3 1 2 3 2 2 3 4 6 4 6 6 6 9 10 9 8 7 7 10 11 5 7 9 8 7
8 7 8 10 14 18 18 14 14 13 6 3 6 4 2 3 4 6 8 5 3 3 2 3 3 2 3 4 3 3 3 3 5 3 2 3 3 3 1 1 3 3 2 3 2 1 4 1 4 4 3 1 1 2 5 4 3 2 1 0 1 0 2 1 1 2 4 2 2 1 4 6 7 4 7 10 9 9 9 7 7 10 10 4 8 8 7 5
6 4 7 9 10 15 19 15 11 8 4 2 3 2 2 3 4 6 8 7 4 3 3 3 4 4 3 3 3 4 3 2 4 3 3 3 3 2 1 2 4 4 3 2 1 1 2 3 3 1 1 2 4 4 3 4 4 4 4 4 4 3 4 2 3 2 2 3 4 3 3 9 7 4 6 7 7 10 10 7 8 11 8 3 7 6 6 5
6 5 6 8 8 14 20 12 5 5 3 3 4 4 5 5 4 6 8 7 3 2 2 2 2 3 4 4 3 3 4 3 3 3 3 5 5 3 2 3 4 4 5 2 3 3 3 4 3 2 4 4 5 4 3 3 2 3 2 2 3 3 5 5 4 4 1 1 2 3 2 8 7 4 6 6 6 7 6 7 10 10 2 7 7 5 6 4
9 11 11 7 6 16 18 6 2 3 2 4 5 5 6 6 4 5 6 6 3 2 2 1 3 4 3 3 4 4 4 3 5 5 4 4 4 2 4 6 4 4 4 2 2 2 3 3 2 2 4 3 5 3 1 1 2 1 3 2 4 3 3 5 5 4 2 3 3 2 3 7 7 4 5 6 6 5 5 8 10 6 3 10 9 6 5 4
11 16 18 12 8 14 15 4 3 5 4 2 2 3 5 5 5 6 5 6 6 4 3 2 3 4 3 2 4 4 5 3 4 5 3 3 3 1 3 6 5 4 3 2 3 4 3 2 3 1 4 5 6 5 3 2 0 3 4 3 4 4 5 4 2 3 1 5 6 5 5 8 6 5 5 6 5 7 10 10 7 7 8 12 12 6 4 4
7 12 16 17 14 16 14 6 4 6 4 4 3 4 4 3 6 10 8 8 9 7 4 2 3 4 2 3 3 2 4 2 2 2 1 2 2 1 2 5 6 4 2 2 4 4 3 3 4 5 3 3 3 2 3 2 1 3 3 4 6 6 7 4 2 3 3 4 5 6 7 8 6 6 7 8 6 9 14 12 9 11 11 14 14 7 5 5
4 5 7 9 13 18 18 13 7 4 4 6 4 4 6 4 5 10 9 7 9 9 5 2 4 4 2 2 3 2 3 1 0 0 1 3 3 2 1 3 5 4 1 2 4 3 2 2 3 6 7 6 6 6 5 4 4 3 4 5 7 6 6 5 4 4 6 3 3 8 7 8 13 11 8 10 10 9 12 16 18 15 13 16 16 8 7 6
5 3 4 4 6 12 15 14 11 6 5 9 6 4 8 8 3 3 6 5 7 9 6 1 3 5 3 5 4 3 4 2 1 2 2 3 2 2 1 2 3 4 2 2 4 4 4 1 4 6 8 7 6 6 5 4 4 6 6 6 7 7 6 7 6 7 6 4 6 9 7 7 17 17 12 13 11 8 11 17 20 16 15 21 19 9 9 8
8 5 7 7 4 5 7 12 15 11 7 9 7 4 8 10 6 4 5 4 5 8 6 1 3 7 8 8 6 3 4 2 1 4 3 2 1 1 1 2 3 4 3 2 3 4 4 3 5 5 6 5 3 4 4 4 3 4 7 7 8 9 10 12 13 9 9 7 12 8 8 12 17 16 15 16 11 7 12 17 18 18 22 25 19 11 10 9
14 10 10 10 8 6 8 14 18 16 11 7 5 4 7 10 10 8 5 3 2 7 9 6 7 10 10 9 7 5 6 5 4 6 4 3 3 2 1 2 3 4 3 2 2 2 3 3 3 3 4 6 4 4 3 4 4 3 7 8 8 11 14 14 13 10 10 13 16 11 10 14 15 15 18 22 17 13 21 25 24 25 26 21 13 11 11 10
18 14 11 10 10 10 10 11 12 11 10 8 7 6 6 9 11 8 5 8 6 4 9 11 10 11 12 10 9 8 9 9 7 6 7 6 2 3 4 3 4 3 2 2 1 2 3 3 1 4 2 7 5 2 1 2 3 6 9 6 6 8 10 10 9 7 7 13 16 14 13 14 18 21 23 29 28 22 24 27 24 20 16 11 11 13 12 11
24 21 14 8 7 8 9 8 8 6 5 7 7 5 5 9 13 10 8 16 18 9 10 15 14 9 7 8 10 10 13 16 13 8 11 10 7 7 7 6 8 7 2 3 2 2 3 2 1 5 1 6 4 3 2 2 2 6 13 10 10 10 8 7 7 6 9 14 15 11 9 11 18 19 15 20 22 17 17 19 15 11 8 9 13 13 11 11
27 28 23 12 5 5 7 6 6 6 6 9 9 8 9 11 13 14 9 13 20 19 17 21 19 9 4 7 14 19 23 25 20 11 10 11 9 8 8 9 12 11 7 5 2 2 4 4 2 3 3 5 5 1 3 5 5 6 12 11 14 14 10 7 6 7 13 14 9 8 11 13 14 10 6 9 11 11 16 16 11 8 8 10 13 12 10 11
Wind_Direction
74 80 83 80 79 78 76 73 70 68 70 71 70 69 68 66 66 72 91 106 112 115 118 126 132 118 36 8 8 1 355 26 57 113 110 84 85 100 111 117 123 123 124 127 124 127 126 110 97 68 40 33 41 33 43 26 43 80 89 82 118 170 182 173 180 195 167 204 191 181 183 180 194 201 211 233 240 241 243 244 236 233 236 239 246 248 248 244
73 74 78 78 80 82 80 76 73 71 70 68 65 63 63 64 63 70 99 115 121 127 134 140 150 156 347 349 1 4 15 36 56 85 82 76 87 100 114 128 137 135 132 131 126 125 125 117 88 49 11 46 54 55 51 31 43 60 96 91 176 196 181 165 191 218 207 206 185 182 187 190 199 197 203 225 240 235 242 249 241 241 241 237 241 243 245 244
82 78 77 79 81 82 80 77 76 77 72 65 61 58 58 59 62 76 109 122 126 134 138 134 116 359 349 351 6 7 38 52 47 58 67 78 92 102 115 132 145 151 146 136 126 108 111 105 32 35 96 82 56 62 47 30 39 43 80 98 230 204 171 140 355 233 224 224 177 177 190 196 206 202 200 218 242 239 234 241 236 238 241 236 235 239 242 243
90 89 87 86 86 82 78 75 76 77 73 66 59 53 49 52 58 71 105 125 127 140 89 1 39 33 23 3 348 323 149 68 28 31 53 84 99 109 114 123 135 149 150 137 124 82 69 37 27 73 102 74 45 63 38 24 44 41 85 148 222 180 139 147 3 281 226 220 185 174 181 201 215 212 212 213 239 254 239 240 236 237 244 239 233 237 241 243
98 99 99 95 94 89 78 72 69 70 72 70 64 53 45 46 52 57 65 71 353 330 309 126 99 60 35 15 3 182 159 49 357 10 34 81 110 123 115 123 131 142 148 144 129 57 28 38 118 114 85 59 37 56 28 27 75 63 59 144 173 169 142 129 105 19 200 194 178 169 167 198 211 215 223 209 205 243 243 247 246 247 254 252 243 240 242 243
99 106 111 112 110 104 91 76 62 59 64 70 69 57 49 48 50 49 40 12 359 10 172 146 103 58 33 22 29 200 192 121 321 359 23 64 121 127 122 132 138 145 154 150 127 72 66 113 139 118 77 60 47 63 37 15 109 101 44 59 129 187 176 141 130 139 176 172 167 171 183 202 204 227 235 221 233 249 251 256 257 259 262 259 252 245 244 244
62 99 120 133 142 141 119 90 72 56 45 51 64 56 51 49 47 44 29 2 343 144 152 147 109 55 34 31 50 127 136 119 115 21 40 84 124 131 130 138 150 162 165 142 123 104 105 111 112 97 82 72 68 81 53 44 99 110 118 90 119 175 165 148 128 141 168 176 176 179 199 218 210 231 253 239 249 258 259 258 257 262 266 259 248 240 242 244
25 39 104 157 176 189 181 146 99 69 33 15 27 51 51 49 46 38 22 8 352 178 164 166 160 109 60 46 84 89 80 81 80 64 49 62 127 160 147 145 163 172 166 148 126 113 105 92 97 95 81 74 106 113 58 63 70 78 138 177 139 150 160 153 137 147 161 180 188 200 230 241 232 249 277 261 263 269 268 265 261 258 260 257 244 235 236 241
10 8 3 263 220 218 212 209 204 90 23 4 356 21 43 50 47 33 20 14 14 154 180 180 167 154 39 33 123 73 44 49 82 78 53 63 98 152 145 146 159 160 165 153 110 106 104 82 98 134 129 123 120 91 19 49 50 87 142 158 150 141 156 166 169 161 168 197 207 237 252 256 255 270 275 268 272 280 277 273 266 257 251 250 245 237 235 239
3 356 352 336 285 246 235 226 229 256 324 359 357 354 16 40 43 31 19 15 24 94 180 190 205 227 255 274 149 83 36 59 86 77 68 70 75 108 135 141 141 157 173 131 88 102 116 102 100 116 122 119 92 36 18 62 111 123 124 121 111 108 148 181 203 234 249 256 252 247 266 270 262 257 267 272 281 289 286 283 274 260 248 244 241 240 238 241
12 355 344 339 324 281 252 235 227 244 270 333 358 350 345 8 27 28 16 11 26 64 178 255 287 78 311 230 141 106 86 94 96 93 85 75 82 98 121 128 118 133 162 137 115 119 113 100 99 113 102 103 82 50 62 97 117 117 114 102 52 35 200 216 227 296 292 289 275 255 274 275 244 168 251 267 281 284 289 294 283 267 255 245 239 239 240 244
14 4 347 337 330 312 275 245 231 229 235 290 342 345 338 346 1 16 12 6 14 39 84 72 81 78 66 116 114 110 117 110 107 99 87 81 93 105 112 114 101 94 105 131 133 122 102 64 42 102 107 117 113 62 85 112 119 104 93 116 339 4 16 244 205 356 319 309 326 324 297 281 205 222 245 262 277 282 292 294 285 270 266 257 245 242 241 246
6 7 359 342 331 322 303 267 234 229 228 243 316 333 338 348 354 3 5 3 355 345 136 102 91 74 53 88 99 113 126 115 106 93 85 84 88 94 98 103 103 97 102 127 133 115 74 41 57 113 112 115 120 113 124 128 113 35 7 105 355 2 2 288 157 43 334 287 321 12 318 289 223 228 247 274 280 284 296 299 295 279 269 266 257 251 248 249
356 359 360 351 336 326 313 293 245 229 230 231 274 320 331 344 353 354 356 2 352 334 235 194 142 221 104 103 108 119 119 108 97 86 90 92 87 88 89 93 99 101 108 119 114 95 80 81 106 110 100 105 120 123 115 54 60 27 351 41 29 14 306 287 157 112 31 313 305 84 264 272 260 254 262 279 287 299 302 298 296 285 277 271 266 262 262 261
348 349 353 352 341 330 319 304 264 230 226 233 245 291 324 335 343 346 350 357 348 339 352 303 142 131 113 113 127 130 118 103 95 93 100 100 96 97 97 99 100 99 105 109 106 100 98 108 112 99 95 108 119 117 49 4 15 41 40 331 354 55 283 296 255 174 192 281 236 128 246 272 279 276 265 274 304 312 301 294 289 281 278 275 272 270 270 273
343 341 342 346 343 334 324 310 281 240 223 230 242 264 311 335 341 338 339 353 353 326 52 75 163 151 112 112 146 143 134 120 104 102 99 97 103 109 108 107 106 105 107 107 107 107 109 113 101 93 101 110 104 84 45 22 351 6 70 256 287 282 296 315 305 216 218 273 259 193 241 281 279 275 285 295 304 309 298 292 289 282 279 275 274 273 273 276
338 337 336 339 340 336 328 315 295 257 224 226 241 256 292 327 340 335 323 331 12 51 116 101 155 149 98 135 167 148 150 152 124 102 90 91 100 118 121 117 114 113 112 112 113 113 105 97 105 100 78 64 43 79 66 18 319 324 23 343 262 253 270 303 313 261 233 224 261 244 226 263 272 281 294 303 313 314 298 294 296 293 288 282 277 273 273 275
328 333 332 332 336 337 329 319 304 273 232 224 237 257 279 311 328 332 326 278 261 168 166 129 132 127 85 157 161 154 162 164 152 113 86 81 81 121 136 131 126 124 120 117 106 95 79 68 105 97 26 32 22 71 100 218 204 221 259 355 295 297 264 261 274 275 27 301 259 273 261 269 280 289 299 314 336 319 302 299 302 302 298 293 286 279 276 275
315 326 329 328 332 336 330 322 312 290 246 224 237 263 277 307 313 317 337 274 221 190 202 268 152 152 174 161 154 163 171 165 169 152 74 40 55 129 132 122 138 142 130 113 38 39 50 48 72 71 39 20 6 93 144 197 160 164 183 182 240 273 270 259 261 260 8 312 264 245 255 279 293 299 305 321 331 319 310 310 312 315 313 306 298 290 284 279
305 316 323 325 328 334 333 325 317 306 265 227 242 271 293 323 320 319 352 5 173 173 206 272 159 146 163 166 166 174 168 161 170 248 301 352 61 143 110 88 119 92 57 46 351 11 39 62 76 164 185 198 221 157 134 129 113 120 150 203 234 239 274 275 271 298 7 336 265 239 268 283 287 287 296 316 326 328 331 335 336 338 336 329 318 307 296 288
299 305 315 322 322 332 335 328 322 313 281 246 261 313 351 347 347 338 346 8 48 114 194 199 147 131 144 174 190 183 187 176 189 267 312 347 158 166 8 32 87 53 4 341 302 353 46 89 157 214 200 196 218 175 61 64 92 105 171 231 274 235 259 272 246 306 10 16 269 287 327 293 285 290 300 317 325 334 347 343 343 353 356 353 344 331 317 302
297 295 307 316 317 328 333 328 324 314 278 258 307 8 20 12 19 357 339 337 344 339 143 155 159 149 153 174 194 172 195 141 164 267 325 349 270 212 298 49 84 76 349 7 31 15 40 118 216 219 198 179 7 45 77 96 94 95 172 219 313 267 279 300 292 312 358 28 271 319 338 293 291 297 302 322 319 321 346 341 344 356 359 3 1 353 345 329
298 292 298 309 314 323 329 324 316 315 273 254 339 4 21 28 46 15 347 313 298 286 217 182 182 186 170 124 14 322 331 59 37 341 343 322 69 72 94 83 78 72 1 24 119 93 67 237 233 177 78 81 47 46 96 124 107 98 132 98 284 298 352 309 293 323 329 248 261 299 309 286 312 322 311 346 353 347 356 355 11 15 8 9 9 1 357 350
300 293 290 300 309 315 325 322 310 316 263 238 356 5 12 31 69 5 336 308 291 268 228 220 204 202 213 69 343 343 79 90 33 3 358 38 121 83 93 92 72 61 6 22 131 122 134 267 313 79 58 95 113 37 88 123 322 313 209 163 227 287 342 251 282 323 327 318 286 319 345 305 338 350 311 344 14 20 23 34 43 35 25 17 16 18 10 359
301 295 288 292 297 308 319 314 305 313 261 223 346 352 331 174 77 6 349 5 312 275 220 218 218 201 207 214 297 359 69 78 26 3 9 61 119 112 95 85 73 114 246 132 108 98 62 318 39 86 56 74 117 306 116 142 276 309 227 179 161 176 212 282 311 340 13 359 319 17 38 299 322 339 279 317 5 6 16 31 29 21 23 23 24 28 24 16
295 295 289 285 284 298 306 298 295 283 237 204 257 318 270 195 54 1 19 52 326 262 182 198 204 197 212 240 280 72 17 324 16 11 37 64 95 133 113 64 59 135 190 150 102 110 103 22 46 104 92 66 74 245 223 130 104 310 218 163 147 145 143 347 354 18 49 308 309 44 92 252 318 319 267 315 343 321 350 9 6 14 28 33 35 33 32 32
282 289 289 282 277 288 296 291 287 255 197 181 232 251 235 193 10 343 30 34 309 218 150 183 185 195 218 248 222 153 323 270 136 27 45 57 31 140 149 5 72 108 148 131 122 239 85 37 41 72 83 70 74 228 212 120 112 283 194 136 125 102 60 89 63 51 241 272 325 16 87 163 298 280 268 308 316 315 345 351 351 19 37 42 46 43 40 39
270 278 284 279 271 274 284 277 266 252 191 194 236 217 198 174 309 325 79 57 274 149 117 186 173 187 210 210 205 167 105 88 141 342 26 51 25 139 163 193 144 134 77 131 220 264 53 79 129 100 87 100 211 219 189 135 114 262 192 139 115 105 138 144 95 67 280 345 328 324 23 65 265 274 304 341 174 327 345 333 325 8 43 49 51 48 44 42
261 265 273 274 267 261 269 268 254 248 225 216 224 203 186 169 340 35 85 141 221 118 107 173 165 191 194 139 146 140 67 44 87 325 15 58 53 95 95 120 128 114 57 77 174 220 42 53 202 147 135 203 232 233 185 145 106 199 146 83 48 68 84 88 92 103 19 36 270 284 354 14 279 282 311 9 74 287 292 287 288 328 47 48 48 47 44 41
256 257 260 265 264 252 255 263 254 252 250 228 217 190 157 116 55 65 85 240 211 110 128 161 186 215 105 107 6 3 61 15 14 41 65 80 79 95 104 109 112 104 46 40 84 152 14 53 62 90 138 201 175 174 152 125 126 131 102 55 29 28 48 55 60 97 57 359 253 254 330 54 312 285 261 260 166 183 190 234 262 253 60 48 42 38 33 28
251 251 251 255 257 247 246 254 254 252 250 238 215 176 150 96 66 101 205 246 114 89 108 148 261 62 96 132 329 342 30 5 357 37 64 62 69 89 102 103 90 69 16 14 54 340 358 62 21 30 114 168 115 97 39 102 110 101 87 54 27 349 11 26 348 32 75 290 260 252 322 79 234 262 244 243 244 188 169 190 221 222 167 52 38 31 24 17
249 247 246 247 246 241 237 242 250 249 248 246 210 178 151 107 80 180 228 310 11 241 187 221 278 87 101 101 71 314 12 5 6 46 96 90 75 175 140 163 182 67 330 279 217 326 323 231 305 352 36 100 111 71 7 3 41 68 62 52 49 346 354 359 319 351 188 249 276 324 345 270 230 247 251 254 257 228 199 188 183 183 155 58 34 26 18 11
249 243 242 242 241 238 230 230 237 239 245 232 194 164 105 108 220 213 225 299 317 257 22 78 56 94 107 98 286 270 148 230 346 49 128 104 32 264 251 200 173 136 257 216 195 326 309 303 320 3 336 25 117 137 148 294 36 78 167 105 95 70 35 312 283 311 277 267 293 318 313 287 268 264 239 240 258 235 199 183 169 160 138 48 27 19 12 13
250 243 241 239 238 236 227 223 226 229 235 213 175 127 104 176 232 218 210 237 258 346 9 65 60 45 69 127 241 233 163 244 340 90 64 49 50 273 276 251 192 111 105 151 196 183 245 288 296 166 283 6 24 170 163 156 102 186 177 131 137 152 143 245 248 234 267 286 299 299 270 204 217 268 237 245 278 239 183 177 175 186 194 24 15 7 9 16
253 244 240 238 236 234 227 221 219 221 223 204 137 106 163 206 234 215 208 219 218 355 1 35 78 67 355 306 290 260 179 250 7 99 94 130 180 210 215 217 205 140 118 161 225 147 182 259 268 311 292 43 22 237 144 93 110 222 157 101 109 168 141 157 193 187 195 317 301 277 233 217 214 273 288 285 285 153 167 181 195 215 224 345 359 358 9 12
257 246 241 238 234 230 227 222 216 217 216 186 113 181 213 217 210 192 183 151 151 155 125 41 72 100 299 296 314 331 157 227 28 95 236 222 203 209 209 215 200 176 150 154 205 160 121 272 294 348 316 51 54 294 313 114 210 214 118 193 235 151 115 111 198 330 69 63 284 270 261 292 321 297 316 22 120 146 173 203 214 227 232 274 344 1 8 5
263 250 243 237 231 227 225 221 213 213 208 168 141 218 222 222 202 188 167 128 135 138 126 132 203 179 223 252 275 275 183 251 295 137 233 252 233 206 208 233 201 194 188 168 210 194 147 266 302 44 343 312 358 320 334 357 175 115 147 224 230 108 90 97 113 355 41 217 279 309 267 293 338 299 321 43 139 204 237 228 231 243 238 255 339 0 2 1
272 260 251 238 229 224 220 218 210 204 193 156 188 237 216 208 212 188 174 154 127 108 119 190 217 192 189 198 241 227 164 198 226 183 198 247 253 198 177 204 195 200 192 153 194 258 139 242 298 339 182 308 356 15 312 343 36 134 175 210 134 126 116 72 121 207 8 262 284 307 296 271 221 234 263 227 204 215 234 238 245 247 232 247 336 351 352 360
282 271 261 243 228 221 218 215 204 193 178 153 212 235 220 225 233 201 183 170 138 121 147 213 205 127 167 172 195 205 178 189 192 184 186 198 239 212 164 175 167 157 163 145 157 247 110 134 283 277 226 303 7 90 228 283 22 39 351 345 8 150 165 160 139 165 194 245 270 310 326 283 230 215 199 207 208 204 214 227 240 234 220 241 328 340 341 350
280 269 268 244 222 216 214 206 192 185 176 178 203 212 220 233 228 201 187 177 162 160 195 215 165 149 194 179 187 188 166 174 172 177 222 208 228 247 210 156 141 149 165 144 150 94 78 111 249 284 315 274 219 209 199 188 158 127 118 270 287 143 143 185 242 139 146 170 198 258 301 271 247 213 192 205 204 194 197 204 226 222 209 248 325 327 326 332
258 258 265 235 214 206 198 189 184 184 179 196 205 214 221 202 195 195 192 189 188 187 192 174 163 176 173 168 212 192 153 160 176 189 241 222 215 256 259 154 148 148 129 107 189 184 120 151 186 255 310 207 232 239 193 181 170 157 178 195 183 157 126 134 276 291 117 158 179 167 259 270 259 213 207 213 196 194 198 197 206 205 203 307 334 317 312 314
230 237 250 231 217 195 182 177 191 184 160 189 208 211 205 192 180 182 187 190 200 206 183 158 163 172 166 177 194 167 151 170 186 194 229 216 210 226 194 156 151 152 134 138 224 203 132 113 124 210 218 216 256 259 170 170 153 139 197 208 152 143 125 133 210 252 165 179 181 132 241 272 265 221 224 234 215 205 216 220 210 197 190 355 346 315 307 294
228 236 241 240 225 190 181 187 265 205 190 201 205 209 199 188 170 165 179 192 197 174 172 207 195 192 211 191 158 164 184 189 188 195 220 227 221 221 177 166 165 157 136 137 198 164 128 108 113 273 291 314 314 318 144 144 88 125 250 198 150 168 147 149 177 180 163 197 174 129 258 269 276 268 256 258 245 239 245 228 217 214 349 356 346 319 300 262
243 250 247 250 238 192 189 209 200 204 236 205 192 219 206 204 187 169 178 197 195 168 155 213 209 201 215 144 130 183 198 195 208 206 210 218 211 188 172 180 185 174 164 183 158 156 196 167 111 74 337 339 341 349 338 311 198 210 234 202 180 153 112 124 144 107 244 226 168 159 244 254 275 305 304 289 260 254 252 233 233 272 307 338 339 313 273 252
258 259 247 247 239 208 207 232 187 187 203 181 198 210 190 221 217 203 204 200 192 176 157 199 191 169 162 119 107 177 187 187 236 210 190 235 240 270 192 202 205 195 209 215 163 152 184 171 124 132 174 241 259 273 258 240 212 225 221 196 195 166 137 153 132 114 243 243 157 176 238 257 278 302 304 292 275 266 263 258 278 287 287 318 326 292 253 264
244 256 237 236 229 213 220 238 225 194 178 177 209 213 187 212 229 210 208 203 198 189 171 173 163 137 104 139 152 208 214 196 48 177 229 232 251 311 207 210 213 204 175 137 162 144 113 181 178 162 187 208 201 216 219 147 128 200 211 194 193 181 153 131 108 165 198 184 195 222 236 277 282 273 269 269 262 269 276 280 288 283 276 303 314 280 249 260
228 252 209 191 220 218 225 235 228 216 190 183 190 189 192 204 217 198 203 210 207 193 179 154 165 166 177 173 172 212 207 154 112 199 214 209 235 330 288 232 219 209 197 129 163 135 93 252 229 190 219 229 188 208 216 143 161 198 193 191 189 179 155 147 186 207 158 130 255 238 199 244 269 267 261 260 256 254 262 270 277 275 277 297 302 270 245 251
224 255 228 209 215 204 214 226 220 219 214 196 191 180 188 196 193 182 191 206 217 197 187 251 225 200 189 173 167 183 178 153 204 212 188 167 191 33 2 264 228 211 209 168 181 143 116 234 226 189 245 258 196 223 219 173 208 195 183 196 184 172 176 192 214 206 155 193 250 240 182 218 254 267 267 265 260 252 261 268 275 278 283 291 288 253 239 243
225 251 246 232 235 217 212 215 208 210 219 209 204 203 189 191 199 201 173 135 234 220 199 210 227 213 202 181 164 171 176 172 209 225 195 156 175 160 143 235 218 206 188 161 211 175 146 229 219 171 276 288 255 253 221 197 244 250 222 213 182 186 199 206 222 211 192 229 253 256 246 249 257 260 264 270 276 282 282 282 281 278 280 282 265 232 231 235
226 236 244 250 255 240 227 215 200 206 218 210 217 221 195 190 198 204 179 170 191 221 199 208 222 210 202 192 179 191 196 182 191 209 179 154 167 192 196 199 172 166 172 158 207 188 178 237 217 119 313 298 295 322 90 185 230 260 257 232 183 212 222 223 239 224 213 247 255 258 268 272 266 260 262 271 278 282 279 279 278 274 274 266 235 221 226 231
238 237 243 265 273 236 219 207 187 193 209 205 212 205 196 210 202 194 207 207 204 195 183 201 217 216 199 195 197 210 209 202 209 207 179 176 188 193 204 194 153 143 171 186 162 149 169 224 14 84 85 283 309 26 71 75 53 278 272 248 209 216 219 217 229 197 199 232 246 256 266 261 261 264 262 264 267 265 264 269 269 258 251 240 227 222 227 230
246 241 241 248 278 241 218 198 178 197 216 208 206 201 211 224 202 186 211 229 217 216 211 204 207 210 186 189 209 220 220 220 228 231 200 199 206 198 200 193 167 156 164 165 155 168 157 161 161 120 164 263 299 29 111 69 38 286 265 235 207 208 215 229 251 221 209 216 225 235 237 241 256 271 269 251 243 243 256 260 250 241 244 237 230 229 232 228